Zurück zum Katalog

LEO 3

AktivAmateurfunkSSO
NORAD 57392·PAYLOAD·🇨🇦 Canada

Gestartet Jul 18, 2023 von Rocket Lab Launch Complex 1

Loading…

Nächste Überflüge (nächste 24 Stunden)

TLE

AktuellSource: Space-Track

Epoche: Sep 14, 2026, 14:33 UTC

1 57392U 23100G   26257.60681684 -.00000046  00000-0 -20681-5 0  9997
2 57392  99.5753  21.1399 0018813 143.9871 216.2546 13.68420826157879

Verfolge LEO 3 in Echtzeit mit AllMySat

Download on the App Store